TimeEST,TemperatureF,Dew PointF,Humidity,Sea Level PressureIn,VisibilityMPH,Wind Direction,Wind SpeedMPH,Gust SpeedMPH,PrecipitationIn,Events,Conditions,WindDirDegrees,DateUTC
12:52 AM,27.0,17.1,66,30.53,7.0,Calm,Calm,-,N/A,,Clear,0,2012-11-17 05:52:00
1:52 AM,28.0,23.0,81,30.53,7.0,Calm,Calm,-,N/A,,Clear,0,2012-11-17 06:52:00
2:52 AM,28.9,24.1,82,30.54,8.0,Calm,Calm,-,N/A,,Clear,0,2012-11-17 07:52:00
3:52 AM,28.0,24.1,85,30.55,7.0,Calm,Calm,-,N/A,,Clear,0,2012-11-17 08:52:00
4:52 AM,28.0,23.0,81,30.56,8.0,Calm,Calm,-,N/A,,Clear,0,2012-11-17 09:52:00
5:52 AM,26.1,21.9,84,30.58,8.0,Calm,Calm,-,N/A,,Clear,0,2012-11-17 10:52:00
6:52 AM,25.0,21.0,85,30.59,8.0,Calm,Calm,-,N/A,,Clear,0,2012-11-17 11:52:00
7:52 AM,26.1,21.9,84,30.61,5.0,Calm,Calm,-,N/A,,Clear,0,2012-11-17 12:52:00
8:52 AM,34.0,27.0,75,30.63,5.0,NNE,3.5,-,N/A,,Haze,20,2012-11-17 13:52:00
9:52 AM,41.0,28.9,62,30.63,8.0,ESE,4.6,-,N/A,,Clear,110,2012-11-17 14:52:00
10:52 AM,45.0,32.0,60,30.63,9.0,Variable,6.9,-,N/A,,Clear,0,2012-11-17 15:52:00
11:52 AM,48.0,35.1,61,30.62,9.0,ESE,8.1,-,N/A,,Clear,110,2012-11-17 16:52:00
12:52 PM,50.0,34.0,54,30.59,10.0,ESE,5.8,-,N/A,,Clear,120,2012-11-17 17:52:00
1:52 PM,52.0,32.0,47,30.57,10.0,Variable,4.6,-,N/A,,Clear,0,2012-11-17 18:52:00
2:52 PM,52.0,30.9,45,30.56,10.0,ESE,6.9,-,N/A,,Clear,110,2012-11-17 19:52:00
3:52 PM,52.0,30.9,45,30.55,10.0,SE,5.8,-,N/A,,Clear,130,2012-11-17 20:52:00
4:52 PM,48.0,37.0,66,30.55,8.0,ENE,6.9,-,N/A,,Clear,60,2012-11-17 21:52:00
5:52 PM,42.1,35.1,76,30.56,7.0,ENE,6.9,-,N/A,,Clear,60,2012-11-17 22:52:00
6:52 PM,39.9,35.1,83,30.57,5.0,ENE,6.9,-,N/A,,Haze,70,2012-11-17 23:52:00
7:52 PM,37.9,36.0,93,30.57,3.0,ENE,4.6,-,N/A,,Clear,70,2012-11-18 00:52:00
8:19 PM,37.4,35.6,93,30.54,2.5,ENE,3.5,-,N/A,,Clear,60,2012-11-18 01:19:00
8:44 PM,37.4,35.6,93,30.55,1.8,Calm,Calm,-,N/A,,Clear,0,2012-11-18 01:44:00
8:52 PM,36.0,35.1,97,30.57,1.0,ESE,3.5,-,N/A,,Mist,110,2012-11-18 01:52:00
9:02 PM,35.6,35.6,100,30.54,1.5,ESE,4.6,-,N/A,,Partly Cloudy,110,2012-11-18 02:02:00
9:26 PM,37.4,35.6,93,30.54,2.0,East,6.9,-,N/A,,Clear,100,2012-11-18 02:26:00
9:52 PM,39.9,37.9,93,30.56,2.5,East,6.9,-,N/A,,Clear,100,2012-11-18 02:52:00
10:52 PM,39.0,37.0,93,30.55,2.5,East,5.8,-,N/A,,Clear,100,2012-11-18 03:52:00
11:24 PM,37.4,37.4,100,30.53,1.8,Calm,Calm,-,N/A,,Clear,0,2012-11-18 04:24:00
11:35 PM,37.4,35.6,93,30.54,1.0,Calm,Calm,-,N/A,,Clear,0,2012-11-18 04:35:00
11:48 PM,39.2,35.6,87,30.53,0.8,Calm,Calm,-,N/A,,Clear,0,2012-11-18 04:48:00
11:52 PM,37.9,36.0,93,30.55,0.8,East,3.5,-,N/A,,Mist,100,2012-11-18 04:52:00